�N����,����,�~����,�C��,���x,�C��,����,���ϕ���,�ő�u�ԕ���,�ő厞����,���˗�,�I�_���x,�n�����x,�ő啗���N��,DTYPE
"21/07/31","00:10",0.0,24.0,92.4,997.0,336.6,1.0,1.8,348.6,0.00,22.7,27.7,"00:00:08",1
"21/07/31","00:20",0.0,23.8,92.4,996.7,343.0,1.0,1.7,13.7,0.00,22.5,27.7,"00:10:40",1
"21/07/31","00:30",0.0,23.9,92.3,997.0,350.2,1.1,1.7,344.3,0.00,22.6,27.6,"00:21:44",1
"21/07/31","00:40",0.0,24.0,92.2,997.2,344.7,1.1,1.6,333.0,0.00,22.7,27.6,"00:35:04",1
"21/07/31","00:50",0.0,23.8,91.9,997.2,340.9,1.2,2.4,340.7,0.00,22.4,27.5,"00:41:44",1
"21/07/31","01:00",0.0,23.8,91.9,997.0,343.5,1.0,1.7,338.4,0.00,22.4,27.6,"00:53:04",1
"21/07/31","01:10",0.0,23.9,91.7,996.7,336.2,1.2,2.0,344.2,0.00,22.5,27.6,"01:04:16",1
"21/07/31","01:20",0.0,24.2,91.4,997.2,337.8,1.3,2.4,340.1,0.00,22.7,27.3,"01:18:56",1
"21/07/31","01:30",0.0,24.5,91.0,997.0,342.1,1.3,2.5,334.1,0.00,23.0,27.4,"01:22:00",1
"21/07/31","01:40",0.0,24.5,90.6,997.2,338.0,1.2,2.4,353.6,0.00,22.9,27.3,"01:36:48",1
"21/07/31","01:50",0.0,24.5,90.1,997.2,342.3,1.2,2.2,341.8,0.00,22.8,27.3,"01:40:02",1
"21/07/31","02:00",0.0,24.4,89.8,997.4,346.4,1.2,2.1,344.7,0.00,22.7,27.2,"01:59:36",1
"21/07/31","02:10",0.0,24.3,89.6,997.4,337.6,1.5,3.6,338.3,0.00,22.5,27.1,"02:08:16",1
"21/07/31","02:20",0.0,24.4,89.3,997.4,342.0,1.5,2.7,345.4,0.00,22.6,27.2,"02:10:24",1
"21/07/31","02:30",0.0,24.1,89.0,997.2,342.4,1.3,2.5,347.6,0.00,22.2,27.2,"02:25:04",1
"21/07/31","02:40",0.0,23.9,89.0,997.4,333.5,1.5,2.2,343.5,0.00,22.0,27.2,"02:38:40",1
"21/07/31","02:50",0.0,23.8,88.9,997.4,329.5,1.3,2.4,332.9,0.00,21.9,26.8,"02:42:08",1
"21/07/31","03:00",0.0,23.6,89.0,997.2,339.9,1.0,2.2,337.8,0.00,21.7,27.1,"02:51:04",1
"21/07/31","03:10",0.0,23.6,89.0,997.2,349.3,0.7,1.8,336.2,0.00,21.7,27.0,"03:08:56",1
"21/07/31","03:20",0.0,23.6,89.0,997.4,340.2,1.1,1.9,332.0,0.00,21.7,26.9,"03:17:36",1
"21/07/31","03:30",0.0,23.5,89.1,997.4,332.9,1.2,2.2,330.6,0.00,21.6,26.9,"03:22:40",1
"21/07/31","03:40",0.0,23.4,89.2,997.2,330.8,1.2,2.1,333.1,0.00,21.6,26.9,"03:37:36",1
"21/07/31","03:50",0.0,23.4,89.2,997.4,326.5,1.1,1.9,338.9,0.00,21.6,26.7,"03:48:56",1
"21/07/31","04:00",0.0,23.4,89.3,997.4,328.3,0.8,2.9,329.3,0.00,21.6,26.9,"03:51:36",1
"21/07/31","04:10",0.0,23.2,89.3,997.4,308.2,0.3,0.9,322.4,0.00,21.4,26.8,"04:04:24",1
"21/07/31","04:20",0.0,23.2,89.5,997.4,314.6,1.2,2.8,333.8,0.00,21.4,26.8,"04:16:40",1
"21/07/31","04:30",0.0,23.2,89.5,997.7,308.4,0.6,1.4,333.0,0.00,21.4,26.7,"04:22:00",1
"21/07/31","04:40",0.0,23.2,89.6,997.7,313.3,1.3,2.2,326.6,0.00,21.4,26.6,"04:35:44",1
"21/07/31","04:50",0.0,23.2,89.7,997.4,323.8,1.5,2.5,335.4,0.00,21.5,26.6,"04:40:40",1
"21/07/31","05:00",0.0,23.2,89.7,997.4,329.3,1.6,2.8,337.3,0.00,21.5,26.6,"04:57:52",1
"21/07/31","05:10",0.0,23.2,89.7,997.4,316.5,1.0,1.8,328.8,0.00,21.5,26.6,"05:05:04",1
"21/07/31","05:20",0.0,23.2,89.7,997.9,326.1,0.8,2.0,332.4,0.00,21.5,26.5,"05:14:00",1
"21/07/31","05:30",0.0,23.1,89.7,997.7,329.8,1.1,1.9,322.1,0.00,21.4,26.6,"05:28:48",1
"21/07/31","05:40",0.0,22.9,90.0,997.9,321.9,1.2,2.2,339.8,0.00,21.2,26.5,"05:35:44",1
"21/07/31","05:50",0.0,23.0,90.3,997.7,344.3,1.0,1.6,16.6,0.00,21.4,26.4,"05:46:48",1
"21/07/31","06:00",0.0,23.0,90.5,997.9,329.9,1.0,1.8,336.0,0.00,21.4,26.4,"05:59:44",1
"21/07/31","06:10",0.0,23.2,90.6,998.4,331.8,1.5,2.8,343.4,0.00,21.6,26.2,"06:01:36",1
"21/07/31","06:20",0.0,23.3,90.7,998.4,341.9,1.3,2.6,339.4,0.01,21.7,26.3,"06:13:20",1
"21/07/31","06:30",0.0,23.5,90.7,998.4,339.8,1.2,2.4,351.9,0.02,21.9,26.3,"06:29:28",1
"21/07/31","06:40",0.0,24.0,90.5,998.2,334.9,1.5,2.4,336.7,0.03,22.4,26.2,"06:31:36",1
"21/07/31","06:50",0.0,24.3,90.0,998.4,327.0,1.6,3.1,344.8,0.04,22.6,26.2,"06:43:12",1
"21/07/31","07:00",0.0,25.0,89.3,998.2,340.5,1.2,2.8,342.1,0.06,23.2,26.2,"06:51:52",1
"21/07/31","07:10",0.0,25.5,88.4,998.4,359.1,0.7,1.4,8.5,0.08,23.5,25.9,"07:02:00",1
"21/07/31","07:20",0.0,26.3,86.8,998.2,351.0,0.6,1.1,355.5,0.11,24.0,26.2,"07:17:20",1
"21/07/31","07:30",0.0,27.1,85.0,998.2,95.1,0.3,1.1,138.5,0.13,24.4,26.2,"07:29:12",1
"21/07/31","07:40",0.0,27.6,82.4,997.9,142.4,0.3,0.9,32.4,0.15,24.4,26.1,"07:30:02",1
"21/07/31","07:50",0.0,28.3,79.0,997.9,138.9,0.2,1.2,34.4,0.18,24.3,26.2,"07:40:16",1
"21/07/31","08:00",0.0,28.9,76.9,997.4,189.0,0.2,0.9,193.9,0.20,24.5,26.3,"07:58:00",1
"21/07/31","08:10",0.0,29.7,73.9,997.7,129.6,0.2,1.2,342.6,0.22,24.6,26.3,"08:09:52",1
"21/07/31","08:20",0.0,30.1,69.8,997.7,60.2,0.5,1.1,86.0,0.24,24.0,26.3,"08:11:52",1
"21/07/31","08:30",0.0,30.3,67.9,997.7,115.6,0.6,1.7,132.1,0.27,23.7,26.2,"08:23:28",1
"21/07/31","08:40",0.0,30.7,66.6,998.2,15.9,0.8,1.7,12.2,0.29,23.8,26.6,"08:39:52",1
"21/07/31","08:50",0.0,30.8,66.7,998.4,88.4,1.1,2.1,350.6,0.31,23.9,26.6,"08:40:24",1
"21/07/31","09:00",0.0,31.0,66.0,997.9,181.7,0.6,1.8,211.8,0.33,23.9,26.5,"08:56:00",1
"21/07/31","09:10",0.0,31.3,65.7,998.4,155.0,1.0,1.9,131.7,0.35,24.1,26.5,"09:06:16",1
"21/07/31","09:20",0.0,31.6,64.4,998.6,127.5,0.8,2.0,194.9,0.37,24.1,26.6,"09:19:52",1
"21/07/31","09:30",0.0,31.7,62.9,998.6,120.7,0.8,2.8,215.7,0.39,23.8,26.6,"09:20:16",1
"21/07/31","09:40",0.0,31.7,63.3,998.4,183.0,1.0,2.8,220.7,0.41,23.9,26.9,"09:35:52",1
"21/07/31","09:50",0.0,31.6,63.2,998.6,164.6,1.2,2.1,132.6,0.43,23.8,27.0,"09:40:56",1
"21/07/31","10:00",0.0,32.4,61.7,998.9,174.2,0.7,2.0,181.8,0.45,24.1,27.0,"09:53:36",1
"21/07/31","10:10",0.0,32.8,61.5,998.9,140.0,1.0,2.9,211.4,0.47,24.5,26.9,"10:07:36",1
"21/07/31","10:20",0.0,32.6,59.3,999.1,140.7,1.0,2.7,198.6,0.48,23.7,27.3,"10:15:52",1
"21/07/31","10:30",0.0,33.6,58.8,999.1,91.0,0.6,1.8,77.1,0.50,24.5,27.3,"10:26:24",1
"21/07/31","10:40",0.0,33.6,58.4,999.1,132.4,0.8,2.1,120.3,0.51,24.3,27.3,"10:33:12",1
"21/07/31","10:50",0.0,34.5,57.9,999.1,134.7,0.5,1.7,172.2,0.53,25.0,27.5,"10:47:52",1
"21/07/31","11:00",0.0,34.6,56.3,999.1,122.2,0.7,1.9,102.0,0.53,24.7,27.7,"10:52:48",1
"21/07/31","11:10",0.0,34.3,55.1,999.1,190.2,0.7,1.9,238.7,0.45,24.0,27.7,"11:02:24",1
"21/07/31","11:20",0.0,34.3,56.7,998.9,99.9,1.2,2.6,354.1,0.57,24.5,27.8,"11:15:52",1
"21/07/31","11:30",0.2,34.7,54.2,998.6,57.9,0.7,1.9,1.9,0.60,24.1,28.1,"11:25:12",1
"21/07/31","11:40",0.0,34.8,52.7,999.1,112.3,1.0,1.9,123.9,0.49,23.7,28.0,"11:31:20",1
"21/07/31","11:50",0.0,34.4,56.0,998.6,96.4,0.6,1.7,71.0,0.28,24.4,28.4,"11:40:16",1
"21/07/31","12:00",0.0,33.9,56.1,997.9,174.7,1.2,2.4,230.9,0.41,24.0,28.3,"11:50:48",1
"21/07/31","12:10",0.0,34.3,53.5,998.2,65.0,1.0,2.4,32.0,0.45,23.5,28.5,"12:06:52",1
"21/07/31","12:20",0.0,34.9,53.1,997.9,16.5,1.1,2.6,351.1,0.55,24.0,28.6,"12:16:56",1
"21/07/31","12:30",0.0,35.5,52.0,997.9,1.2,0.7,2.0,13.1,0.45,24.2,28.7,"12:22:40",1
"21/07/31","12:40",0.0,34.9,53.5,997.4,191.5,1.5,3.2,181.3,0.54,24.1,28.7,"12:38:00",1
"21/07/31","12:50",0.0,35.8,50.8,997.7,144.5,1.1,2.9,246.3,0.64,24.1,28.8,"12:48:48",1
"21/07/31","13:00",0.0,35.1,50.8,997.7,239.3,1.8,4.7,228.9,0.66,23.4,28.9,"12:54:40",1
"21/07/31","13:10",0.0,35.4,51.6,997.4,209.8,1.5,3.2,232.7,0.66,23.9,29.0,"13:02:32",1
"21/07/31","13:20",0.0,34.9,53.3,997.4,195.0,2.3,5.4,221.7,0.63,24.0,29.1,"13:10:02",1
"21/07/31","13:30",0.0,34.1,55.7,997.2,160.6,1.6,4.5,209.9,0.25,24.0,29.2,"13:22:56",1
"21/07/31","13:40",0.0,33.5,58.2,997.0,85.3,1.0,1.9,48.2,0.13,24.2,29.2,"13:33:36",1
"21/07/31","13:50",0.0,32.7,62.2,996.3,27.6,0.7,1.8,13.8,0.07,24.6,29.1,"13:43:20",1
"21/07/31","14:00",0.4,30.6,68.3,995.6,21.2,1.7,3.3,15.0,0.05,24.1,29.5,"13:55:12",1
"21/07/31","14:10",1.6,28.3,76.1,994.6,29.8,1.1,4.4,12.2,0.02,23.7,29.2,"14:03:46",1
"21/07/31","14:20",3.4,26.7,78.0,994.6,225.1,1.2,5.6,186.1,0.02,22.6,29.4,"14:18:42",1
"21/07/31","14:30",0.6,26.9,80.6,994.6,297.1,2.0,5.1,181.4,0.05,23.3,29.3,"14:20:48",1
"21/07/31","14:40",0.2,26.7,82.1,994.6,309.6,0.8,3.7,343.9,0.15,23.4,29.3,"14:39:52",1
"21/07/31","14:50",0.0,26.4,83.9,994.6,341.0,1.6,3.3,357.3,0.14,23.5,29.2,"14:41:04",1
"21/07/31","15:00",0.0,26.2,85.0,994.6,326.6,1.7,4.1,341.8,0.11,23.5,29.2,"14:56:48",1
"21/07/31","15:10",0.0,26.1,85.6,994.8,333.8,1.7,4.1,352.9,0.09,23.5,29.2,"15:02:00",1
"21/07/31","15:20",0.0,27.0,86.2,994.6,295.7,1.2,2.4,339.7,0.20,24.5,29.2,"15:18:08",1
"21/07/31","15:30",0.0,27.9,85.5,994.1,280.3,1.0,3.2,253.4,0.25,25.3,29.0,"15:22:48",1
"21/07/31","15:40",0.0,28.4,85.0,994.1,220.8,0.8,2.5,232.7,0.14,25.7,29.1,"15:36:08",1
"21/07/31","15:50",0.0,28.2,84.2,994.6,288.2,1.0,1.9,269.9,0.08,25.3,29.0,"15:42:32",1
"21/07/31","16:00",0.0,28.0,84.4,994.4,257.8,1.5,4.1,237.3,0.14,25.2,29.1,"15:58:16",1
"21/07/31","16:10",0.0,28.4,83.7,994.1,239.3,2.1,3.6,230.3,0.22,25.4,28.8,"16:05:12",1
"21/07/31","16:20",0.0,28.5,83.8,993.9,294.0,1.2,3.2,347.6,0.11,25.5,28.9,"16:16:08",1
"21/07/31","16:30",0.0,28.5,84.0,993.9,289.5,1.3,2.7,340.0,0.09,25.6,29.1,"16:22:32",1
"21/07/31","16:40",0.0,28.8,83.7,993.4,265.2,1.0,2.2,256.6,0.13,25.8,28.7,"16:33:20",1
"21/07/31","16:50",0.0,28.8,83.3,993.7,302.0,1.2,2.5,336.5,0.09,25.7,28.8,"16:44:00",1
"21/07/31","17:00",0.0,28.8,83.1,993.4,299.3,1.1,2.5,247.9,0.06,25.7,28.8,"16:50:16",1
"21/07/31","17:10",0.0,28.5,82.8,993.7,307.9,1.2,2.6,320.5,0.05,25.3,29.0,"17:07:04",1
"21/07/31","17:20",0.0,29.0,82.5,993.4,313.8,1.6,3.1,354.2,0.11,25.8,28.8,"17:16:08",1
"21/07/31","17:30",0.0,29.1,81.4,993.9,323.3,2.0,4.1,327.2,0.08,25.6,28.8,"17:28:08",1
"21/07/31","17:40",0.0,29.0,80.6,993.4,334.2,2.0,4.5,337.2,0.06,25.4,28.6,"17:39:44",1
"21/07/31","17:50",0.0,29.1,80.4,993.7,320.3,1.6,3.1,335.6,0.04,25.4,28.9,"17:48:48",1
"21/07/31","18:00",0.0,29.0,80.0,993.7,334.9,2.5,4.1,342.7,0.05,25.2,28.9,"17:57:44",1
"21/07/31","18:10",0.0,29.0,79.6,993.9,331.7,2.3,4.5,337.5,0.03,25.2,28.8,"18:02:32",1
"21/07/31","18:20",0.0,29.1,79.5,993.9,333.3,1.8,4.1,340.5,0.02,25.2,28.6,"18:11:28",1
"21/07/31","18:30",0.0,28.9,79.9,994.1,330.0,2.2,4.5,346.2,0.00,25.1,28.6,"18:28:08",1
"21/07/31","18:40",0.2,28.6,80.4,994.1,331.3,2.1,3.5,330.5,0.00,24.9,28.6,"18:35:28",1
"21/07/31","18:50",0.0,28.6,80.8,994.4,279.0,1.3,3.5,341.0,0.00,25.0,28.7,"18:40:40",1
"21/07/31","19:00",0.0,27.6,77.2,995.1,168.9,2.1,4.5,164.4,0.00,23.3,28.6,"18:51:52",1
"21/07/31","19:10",0.0,27.5,76.7,995.6,128.1,1.5,3.1,174.9,0.00,23.1,28.5,"19:00:24",1
"21/07/31","19:20",0.0,26.9,77.7,996.0,131.3,1.1,4.2,156.1,0.00,22.7,28.5,"19:13:20",1
"21/07/31","19:30",0.0,26.4,78.0,996.3,128.9,0.7,2.5,169.6,0.00,22.3,28.6,"19:21:28",1
"21/07/31","19:40",0.0,26.0,79.1,996.7,101.7,1.1,2.6,42.0,0.00,22.1,28.5,"19:32:48",1
"21/07/31","19:50",0.6,25.2,80.8,997.0,14.5,0.8,1.8,80.9,0.00,21.7,28.3,"19:40:48",1
"21/07/31","20:00",1.2,24.3,83.5,997.4,179.5,1.2,2.8,199.0,0.00,21.4,28.4,"19:52:48",1
"21/07/31","20:10",1.8,24.2,85.4,997.2,355.3,1.1,2.4,3.3,0.00,21.6,28.1,"20:08:10",1
"21/07/31","20:20",1.8,23.9,87.1,997.0,316.9,1.7,2.9,298.7,0.00,21.7,28.3,"20:12:00",1
"21/07/31","20:30",0.4,23.8,88.3,997.0,328.1,1.3,3.3,337.9,0.00,21.8,28.1,"20:26:56",1
"21/07/31","20:40",0.0,23.6,89.0,997.4,318.1,0.7,2.1,7.0,0.00,21.7,28.1,"20:30:48",1
"21/07/31","20:50",0.0,23.6,89.7,997.0,280.9,0.8,1.6,331.7,0.00,21.8,28.0,"20:48:48",1
"21/07/31","21:00",0.0,23.6,90.1,997.0,315.1,1.1,3.1,345.7,0.00,21.9,27.9,"20:53:36",1
"21/07/31","21:10",0.0,23.6,90.5,997.2,282.6,0.8,2.2,286.1,0.00,22.0,27.7,"21:01:20",1
"21/07/31","21:20",0.0,23.5,90.8,997.2,323.0,0.7,1.7,351.2,0.00,21.9,27.7,"21:18:40",1
"21/07/31","21:30",0.0,23.6,91.0,997.2,330.6,0.8,2.2,300.7,0.00,22.1,27.7,"21:20:08",1
"21/07/31","21:40",0.0,23.6,91.3,997.0,322.3,0.8,2.0,333.5,0.00,22.1,27.6,"21:37:04",1
"21/07/31","21:50",0.0,23.6,91.4,997.2,351.5,0.3,1.0,322.9,0.00,22.2,27.7,"21:40:08",1
"21/07/31","22:00",0.0,23.6,91.6,997.4,336.2,0.3,1.2,334.8,0.00,22.2,27.6,"21:53:04",1
"21/07/31","22:10",0.0,23.5,91.8,997.4,153.5,0.5,1.7,342.3,0.00,22.1,27.4,"22:09:20",1
"21/07/31","22:20",0.0,23.5,91.8,997.4,308.3,0.3,1.0,339.5,0.00,22.1,27.3,"22:10:40",1
"21/07/31","22:30",0.0,23.4,92.0,997.7,332.2,1.0,1.7,346.4,0.00,22.1,27.4,"22:29:36",1
"21/07/31","22:40",0.0,23.4,92.2,997.7,322.6,1.0,1.8,332.6,0.00,22.1,27.1,"22:33:36",1
"21/07/31","22:50",0.0,23.2,92.3,997.7,270.0,0.2,0.8,338.6,0.00,21.9,27.4,"22:40:32",1
"21/07/31","23:00",0.0,23.2,92.4,997.9,293.4,0.8,1.3,237.6,0.00,21.9,27.5,"22:51:28",1
"21/07/31","23:10",0.0,23.2,92.6,997.7,0.5,0.6,1.6,337.6,0.00,22.0,27.4,"23:01:36",1
"21/07/31","23:20",0.0,23.1,92.7,997.4,306.4,0.8,1.3,323.6,0.00,21.9,27.4,"23:12:56",1
"21/07/31","23:30",0.0,23.1,92.8,997.4,255.2,0.3,1.2,352.0,0.00,21.9,27.2,"23:27:44",1
"21/07/31","23:40",0.0,23.2,92.9,997.7,314.8,0.8,1.6,306.9,0.00,22.0,27.2,"23:38:24",1
"21/07/31","23:50",0.0,23.1,93.0,997.4,312.5,0.8,1.4,343.0,0.00,21.9,27.2,"23:41:28",1
"21/07/31","24:00",0.0,23.1,93.1,997.7,346.0,0.2,1.0,355.5,0.00,22.0,27.1,"23:52:08",1
